This demonstration page uses our WeatherBlox Daily Observations layout. Learn more.

Left ArrowRight Arrow

41.86663, -103.66717

Hourly Observations for March 16, 2018

Temp ( °F °C ) Dew Point ( °F °C ) Humidity (%) Winds ( mph kmh ) Pressure ( in mb ) Visibility ( mi km ) Precip ( " mm )
12:53 am 00:53 Cloudy with Light Snow 37 2.8 36 2.2 96 96 NNE 14 22 29.55 1001 5 8 0.03 0.76
1:00 am 01:00 Cloudy with Light Snow 36 2.2 36 2.2 100 100 NE 14 22 29.71 1006 3 5 0.01 0.25
1:06 am 01:06 Cloudy with Light Snow 35 1.7 34 1.1 96 96 NNE 12 19 29.71 1006 2 3 0.03 0.76
1:18 am 01:18 Cloudy with Light Snow 34 1.1 34 1.1 100 100 NNE 12 19 29.68 1005 1 2 0.07 1.78
1:46 am 01:46 Cloudy with Light Snow 34 1.1 34 1.1 100 100 NNE 12 19 29.68 1005 1 1 0.14 3.56
1:53 am 01:53 Cloudy with Light Snow 34 1.1 34 1.1 100 100 NNE 14 22 29.54 1000 1 1 0.16 4.06
2:01 am 02:01 Mostly Cloudy with Light Snow 34 1.1 34 1.1 100 100 NNE 13 20 29.68 1005 1 2 0.02 0.51
2:13 am 02:13 Mostly Cloudy with Light Snow 33 0.6 33 0.6 100 100 NNE 14 22 29.68 1005 1 1 0.05 1.27
2:31 am 02:31 Cloudy with Light Snow 34 1.1 34 1.1 100 100 NNE 15 24 29.68 1005 1 2 0.10 2.54
2:40 am 02:40 Cloudy with Light Snow 34 1 34 1 100 100 NNE 15 24 29.68 1005 1 1 N/A
2:53 am 02:53 Cloudy with Light Snow 34 1.1 34 1.1 100 100 NNE 16 26 29.54 1001 1 1 0.13 3.30
3:53 am 03:53 Mostly Cloudy with Snow 33 0.6 33 0.6 100 100 NNE 13 20 29.56 1001 1 1 0.09 2.29
4:16 am 04:16 Cloudy with Light Snow 34 1 34 1 100 100 N 8 13 29.71 1006 1 2 N/A
4:46 am 04:46 Cloudy with Light Snow 32 undefined 32 undefined 100 100 NW 9 15 29.74 1007 1 1 N/A
4:53 am 04:53 Cloudy with Light Snow 32 undefined 32 undefined 100 100 NW 8 13 29.60 1002 1 1 0.06 1.52
5:14 am 05:14 Cloudy with Light Snow 32 undefined 32 undefined 100 100 NNW 8 13 29.74 1007 2 2 N/A
5:28 am 05:28 Cloudy with Light Snow 32 undefined 32 undefined 100 100 NNW 7 11 29.77 1008 2 3 N/A
5:45 am 05:45 Cloudy with Light Snow 32 undefined 32 undefined 100 100 N 6 9 29.77 1008 3 5 0.03 0.76
5:53 am 05:53 Cloudy with Light Snow 32 undefined 32 undefined 100 100 N 6 9 29.62 1003 4 6 0.03 0.76
6:08 am 06:08 Cloudy with Light Snow 32 undefined 32 undefined 100 100 N 9 15 29.77 1008 2 3 N/A
6:35 am 06:35 Cloudy with Light Snow 32 undefined 31 -0.6 96 96 N 7 11 29.77 1008 3 4 0.01 0.25
6:42 am 06:42 Cloudy with Light Snow 32 undefined 30 -1 93 93 N 7 11 29.77 1008 3 5 N/A
6:53 am 06:53 Cloudy with Light Snow 32 undefined 31 -0.6 96 96 N 7 11 29.65 1004 3 5 0.01 0.25
7:11 am 07:11 Cloudy with Mist and Fog 32 undefined 31 -0.6 96 96 NW 7 11 29.80 1009 6 10 N/A
7:53 am 07:53 Cloudy 31 -0.6 29 -1.7 92 92 NNW 8 13 29.67 1005 8 13 N/A
8:29 am 08:29 Cloudy with Light Snow 31 -0.6 29 -1.7 92 92 N 7 11 29.80 1009 5 8 N/A
8:53 am 08:53 Cloudy with Light Snow 31 -0.6 29 -1.7 92 92 NW 5 7 29.70 1006 3 5 N/A
9:03 am 09:03 Cloudy with Light Snow 31 -0.6 29 -1.7 92 92 WNW 3 6 29.80 1009 3 4 N/A
9:20 am 09:20 Cloudy with Light Snow 30 -1 28 -2 93 93 WNW 9 15 29.83 1010 2 2 N/A
9:41 am 09:41 Cloudy with Light Snow 30 -1.1 28 -2.2 92 92 NW 8 13 29.83 1010 2 3 0.01 0.25
9:53 am 09:53 Cloudy with Light Snow 30 -1.1 29 -1.7 96 96 NNW 9 15 29.74 1007 2 3 0.01 0.25
9:56 am 09:56 Cloudy with Light Snow 30 -1 28 -2 93 93 NNW 9 15 29.83 1010 2 3 N/A
10:03 am 10:03 Cloudy with Light Snow 30 -1.1 28 -2.2 92 92 NNW 9 15 29.83 1010 2 3 N/A
10:10 am 10:10 Cloudy with Light Snow 30 -1 28 -2 93 93 NNW 8 13 29.85 1011 2 3 N/A
10:17 am 10:17 Cloudy with Light Snow 30 -1.1 29 -1.7 96 96 NNW 7 11 29.85 1011 2 3 N/A
10:24 am 10:24 Cloudy with Light Snow 30 -1 28 -2 93 93 NNW 7 11 29.85 1011 2 3 N/A
10:53 am 10:53 Cloudy with Light Snow 30 -1.1 28 -2.2 92 92 NW 10 17 29.78 1009 1 2 N/A
11:10 am 11:10 Cloudy with Light Snow 30 -1 27 -3 86 86 NW 10 17 29.85 1011 1 2 N/A
11:29 am 11:29 Cloudy with Light Snow 30 -1.1 28 -2.2 92 92 NNW 9 15 29.85 1011 3 5 0.01 0.25
11:53 am 11:53 Cloudy 31 -0.6 27 -2.8 85 85 NNW 9 15 29.80 1009 7 11 0.01 0.25
12:53 pm 12:53 Cloudy 31 -0.6 26 -3.3 82 82 NNE 8 13 29.83 1010 9 14 N/A
1:53 pm 13:53 Cloudy 32 undefined 26 -3.3 79 79 NE 6 9 29.83 1010 10 16 N/A
2:37 pm 14:37 Cloudy with Light Snow 33 0.6 27 -2.8 78 78 NNE 7 11 29.85 1011 7 11 N/A
2:53 pm 14:53 Cloudy with Haze 32 undefined 27 -2.8 82 82 NNE 6 9 29.83 1010 6 10 N/A
3:53 pm 15:53 Mostly Cloudy 35 1.7 28 -2.2 76 76 N N/A 29.82 1010 10 16 N/A
4:08 pm 16:08 Mostly Cloudy 34 1 28 -2 81 81 N N/A 29.85 1011 10 16 N/A
4:21 pm 16:21 Partly Cloudy 37 2.8 28 -2.2 70 70 N N/A 29.83 1010 10 16 N/A
4:53 pm 16:53 Sunny 34 1.1 29 -1.7 82 82 WSW 3 6 29.83 1010 10 16 N/A
5:53 pm 17:53 Sunny 36 2.2 29 -1.7 76 76 W 3 6 29.83 1010 10 16 N/A
6:53 pm 18:53 Sunny 34 1.1 29 -1.7 82 82 undefined N/A 29.86 1011 10 16 N/A
7:53 pm 19:53 Clear 32 undefined 29 -1.7 88 88 S 5 7 29.91 1013 8 13 N/A
8:53 pm 20:53 Clear 30 -1.1 28 -2.2 92 92 E 6 9 29.94 1014 7 11 N/A
9:53 pm 21:53 Clear 29 -1.7 26 -3.3 89 89 N 8 13 29.97 1015 10 16 N/A
10:53 pm 22:53 Clear 26 -3.3 24 -4.4 92 92 NW 5 7 29.99 1016 8 13 N/A
11:53 pm 23:53 Mostly Clear 24 -4.4 22 -5.6 91 91 W 8 13 30.01 1016 8 13 N/A

Powered by AerisWeather